N47J SBJP-FNLU

Flight info

Callsign N47J
Flight time N/A
Altitude 41000
Route DOMDO UZ14 PUDON DCT 06S028W 08S025W DCT MELEM DCT DABAG UZ48 PAKIP DCT 08S008W 08S003W 08S001E 08S006E DCT TIGIM
Aircraft CL60/M-SADE3FGHIJ3J4J7P2RWXY/HB1D1

Departure

Time N/A
Airport Presidente Castro Pinto International Airport (SBJP)

Arrival

Time 2026-05-04 19:33
Airport Quatro de Fevereiro International Airport (FNLU)
Time Latitude Longitude Altitude Speed Heading
2026-05-04 19:10 -8.74955 12.06996 27570 ft 409 kts 80°
2026-05-04 19:11 -8.74549 12.09854 27065 ft 406 kts 81°
2026-05-04 19:11 -8.74152 12.12653 26566 ft 404 kts 80°
2026-05-04 19:11 -8.73752 12.15466 26064 ft 401 kts 81°
2026-05-04 19:11 -8.73362 12.18216 25570 ft 399 kts 81°
2026-05-04 19:12 -8.72970 12.20971 25073 ft 397 kts 81°
2026-05-04 19:12 -8.72189 12.26464 24074 ft 393 kts 81°
2026-05-04 19:12 -8.71804 12.29165 23580 ft 390 kts 81°
2026-05-04 19:13 -8.71414 12.31901 23079 ft 388 kts 81°
2026-05-04 19:13 -8.71036 12.34555 22585 ft 385 kts 81°
2026-05-04 19:13 -8.70652 12.37249 22084 ft 383 kts 81°
2026-05-04 19:13 -8.70279 12.39863 21594 ft 380 kts 81°
2026-05-04 19:14 -8.69899 12.42524 21088 ft 377 kts 81°
2026-05-04 19:14 -8.69528 12.45125 20587 ft 374 kts 81°
2026-05-04 19:14 -8.68818 12.50094 19620 ft 367 kts 81°
2026-05-04 19:15 -8.68453 12.52644 19119 ft 364 kts 81°
2026-05-04 19:15 -8.68094 12.55163 18614 ft 360 kts 82°
2026-05-04 19:15 -8.67779 12.57665 18111 ft 356 kts 84°
2026-05-04 19:15 -8.67452 12.60131 17615 ft 353 kts 84°
2026-05-04 19:16 -8.67137 12.62556 17126 ft 350 kts 81°
2026-05-04 19:16 -8.66772 12.64992 16621 ft 348 kts 81°
2026-05-04 19:16 -8.66413 12.67409 16120 ft 345 kts 81°
2026-05-04 19:16 -8.66065 12.69763 15624 ft 341 kts 81°
2026-05-04 19:17 -8.65718 12.72120 15126 ft 339 kts 81°
2026-05-04 19:17 -8.65376 12.74452 14626 ft 336 kts 81°
2026-05-04 19:17 -8.65034 12.76782 14126 ft 333 kts 81°
2026-05-04 19:17 -8.64698 12.79083 13625 ft 330 kts 81°
2026-05-04 19:18 -8.64367 12.81348 13126 ft 327 kts 81°
2026-05-04 19:18 -8.64039 12.83601 12625 ft 324 kts 81°
2026-05-04 19:18 -8.63710 12.85861 12120 ft 321 kts 81°
2026-05-04 19:18 -8.63388 12.88075 11621 ft 319 kts 80°
2026-05-04 19:19 -8.63072 12.90253 11126 ft 316 kts 81°
2026-05-04 19:19 -8.62751 12.92461 10619 ft 314 kts 81°
2026-05-04 19:19 -8.62439 12.94610 10125 ft 312 kts 81°
2026-05-04 19:19 -8.62124 12.96779 9622 ft 309 kts 81°
2026-05-04 19:20 -8.61818 12.98897 9074 ft 302 kts 81°
2026-05-04 19:20 -8.61523 13.00934 8574 ft 292 kts 81°
2026-05-04 19:20 -8.61232 13.02943 8075 ft 284 kts 81°
2026-05-04 19:20 -8.60953 13.04869 7583 ft 276 kts 81°
2026-05-04 19:21 -8.60679 13.06762 7089 ft 270 kts 81°
2026-05-04 19:21 -8.60408 13.08627 6589 ft 264 kts 81°
2026-05-04 19:21 -8.60147 13.10426 6095 ft 259 kts 81°
2026-05-04 19:21 -8.59889 13.12208 5595 ft 255 kts 81°
2026-05-04 19:22 -8.59635 13.13958 5143 ft 249 kts 81°
2026-05-04 19:22 -8.59390 13.15646 4981 ft 231 kts 81°
2026-05-04 19:22 -8.59168 13.17184 5020 ft 216 kts 81°
2026-05-04 19:22 -8.58950 13.18686 4989 ft 218 kts 81°
2026-05-04 19:23 -8.58728 13.20213 4982 ft 218 kts 81°
2026-05-04 19:23 -8.58509 13.21724 4981 ft 218 kts 81°
2026-05-04 19:23 -8.58287 13.23247 4980 ft 218 kts 82°
2026-05-04 19:23 -8.58069 13.24754 4984 ft 217 kts 82°
2026-05-04 19:24 -8.57989 13.26265 4977 ft 218 kts 97°
2026-05-04 19:24 -8.58593 13.27669 4978 ft 221 kts 127°
2026-05-04 19:24 -8.59699 13.28770 4982 ft 222 kts 136°
2026-05-04 19:24 -8.60830 13.29824 4809 ft 222 kts 135°
2026-05-04 19:25 -8.61968 13.30893 4614 ft 221 kts 135°
2026-05-04 19:25 -8.63066 13.31924 4428 ft 207 kts 135°
2026-05-04 19:25 -8.64084 13.32879 4229 ft 189 kts 135°
2026-05-04 19:25 -8.65003 13.33742 4047 ft 174 kts 135°
2026-05-04 19:26 -8.65884 13.34570 3840 ft 171 kts 135°
2026-05-04 19:26 -8.66759 13.35395 3623 ft 170 kts 136°
2026-05-04 19:26 -8.67625 13.36210 3420 ft 169 kts 136°
2026-05-04 19:26 -8.68481 13.37018 3219 ft 169 kts 136°
2026-05-04 19:27 -8.69315 13.37804 3047 ft 152 kts 136°
2026-05-04 19:27 -8.70082 13.38488 2993 ft 146 kts 146°
2026-05-04 19:27 -8.71072 13.38748 2978 ft 148 kts 185°
2026-05-04 19:27 -8.71979 13.38271 2998 ft 149 kts 223°
2026-05-04 19:28 -8.72679 13.37481 3032 ft 151 kts 229°
2026-05-04 19:28 -8.73383 13.36692 3018 ft 151 kts 226°
2026-05-04 19:28 -8.74102 13.35920 3011 ft 151 kts 226°
2026-05-04 19:28 -8.74831 13.35139 3011 ft 151 kts 226°
2026-05-04 19:29 -8.75554 13.34364 2999 ft 152 kts 226°
2026-05-04 19:29 -8.76286 13.33580 2835 ft 150 kts 226°
2026-05-04 19:29 -8.76980 13.32837 2573 ft 142 kts 226°
2026-05-04 19:29 -8.77650 13.32120 2385 ft 137 kts 226°
2026-05-04 19:30 -8.78297 13.31427 2216 ft 135 kts 227°
2026-05-04 19:30 -8.78940 13.30739 2044 ft 133 kts 227°
2026-05-04 19:30 -8.79580 13.30050 1876 ft 132 kts 227°
2026-05-04 19:30 -8.80211 13.29377 1706 ft 131 kts 227°
2026-05-04 19:31 -8.80839 13.28707 1539 ft 131 kts 227°
2026-05-04 19:31 -8.81463 13.28039 1343 ft 130 kts 227°
2026-05-04 19:31 -8.82098 13.27380 1136 ft 127 kts 226°
2026-05-04 19:31 -8.82732 13.26738 1004 ft 132 kts 229°
2026-05-04 19:32 -8.83351 13.26035 933 ft 131 kts 230°
2026-05-04 19:32 -8.83965 13.25357 738 ft 133 kts 225°
2026-05-04 19:32 -8.84610 13.24698 582 ft 129 kts 226°
2026-05-04 19:32 -8.85220 13.24029 339 ft 126 kts 229°
2026-05-04 19:33 -8.85796 13.23400 244 ft 113 kts 227°
2026-05-04 19:33 -8.86254 13.22907 244 ft 70 kts 227°
2026-05-04 19:33 -8.86407 13.22730 245 ft 6 kts 266°